EW8032 Weather Reports


Display with metric or nautical units.
time (UTC)temp
F
wind
direction
speed
MPH
gust
MPH
rain 1hr
in
rain 24hr
in
rain mn
in
humidity
%
barometer
mb
20260508092324 64 44 4.0 8.0 0.00 0.09 0.02 78 1011.0
20260508092229 64 51 3.0 7.0 0.00 0.09 0.02 77 1011.0
20260508092054 64 85 4.0 7.0 0.00 0.09 0.02 77 1011.0
20260508091906 64 106 2.0 8.0 0.00 0.09 0.02 78 1011.1
20260508091722 64 113 3.0 8.0 0.00 0.09 0.02 78 1011.0
20260508091551 64 98 3.0 8.0 0.00 0.09 0.02 78 1011.1
20260508090837 64 55 4.0 6.0 0.00 0.09 0.02 79 1010.9
20260508090824 64 44 4.0 6.0 0.00 0.09 0.02 79 1010.9
20260508090658 64 56 4.0 6.0 0.00 0.09 0.02 78 1010.9
20260508090517 64 81 3.0 6.0 0.00 0.09 0.02 78 1011.0
20260508090120 64 90 3.0 7.0 0.00 0.09 0.02 78 1010.9
20260508085944 64 46 3.0 7.0 0.00 0.09 0.02 78 1010.9
20260508085812 64 49 3.0 7.0 0.00 0.09 0.02 78 1011.0
20260508085753 64 66 3.0 7.0 0.00 0.09 0.02 78 1011.0
20260508085619 64 69 3.0 7.0 0.00 0.09 0.02 77 1011.0
20260508085444 64 80 4.0 7.0 0.00 0.09 0.02 77 1011.1
20260508085340 64 72 2.0 7.0 0.00 0.09 0.02 78 1011.1
20260508085251 64 86 2.0 7.0 0.00 0.09 0.02 78 1011.0
20260508085111 63 121 2.0 7.0 0.00 0.09 0.02 79 1011.1
20260508084936 63 85 3.0 7.0 0.00 0.09 0.02 78 1011.1
20260508084915 63 82 3.0 7.0 0.00 0.09 0.02 78 1011.1
20260508084730 63 126 4.0 7.0 0.00 0.09 0.02 78 1011.1
20260508084556 63 113 2.0 7.0 0.00 0.09 0.02 78 1011.1
20260508084124 63 82 4.0 7.0 0.00 0.09 0.02 78 1011.2
20260508083942 63 88 3.0 5.0 0.00 0.09 0.02 80 1011.2
20260508083935 63 71 3.0 5.0 0.00 0.09 0.02 80 1011.2
20260508083542 63 122 2.0 6.0 0.00 0.09 0.02 79 1011.2
20260508083232 62 96 3.0 6.0 0.00 0.09 0.02 80 1011.2
20260508083056 62 69 2.0 6.0 0.00 0.09 0.02 80 1011.2
20260508082907 62 103 3.0 6.0 0.00 0.09 0.02 80 1011.2
20260508082432 62 109 2.0 4.0 0.00 0.10 0.02 81 1011.2
20260508082336 62 109 2.0 4.0 0.00 0.10 0.02 81 1011.2
20260508082230 62 109 2.0 4.0 0.00 0.10 0.02 82 1011.1
20260508082049 62 100 2.0 4.0 0.00 0.10 0.02 82 1011.2
20260508081900 61 51 2.0 4.0 0.00 0.10 0.02 83 1011.2
20260508081433 61 71 2.0 5.0 0.00 0.10 0.02 84 1011.2
20260508081339 60 137 2.0 6.0 0.00 0.10 0.02 84 1011.1
20260508081238 60 63 3.0 6.0 0.00 0.10 0.02 84 1011.1
20260508081057 60 111 3.0 7.0 0.00 0.10 0.02 84 1011.1
20260508080648 60 61 3.0 7.0 0.00 0.10 0.02 84 1011.1
20260508080505 60 114 4.0 7.0 0.00 0.10 0.02 84 1011.1
20260508080046 60 123 3.0 8.0 0.00 0.10 0.02 84 1011.1
20260508075901 60 140 5.0 8.0 0.00 0.10 0.02 84 1010.9
20260508075505 60 146 4.0 8.0 0.00 0.10 0.02 84 1011.0
20260508075040 59 114 2.0 7.0 0.00 0.11 0.02 85 1010.9
20260508074706 59 78 3.0 7.0 0.00 0.11 0.02 85 1010.9
20260508074529 59 141 3.0 7.0 0.00 0.11 0.02 86 1010.8
20260508074348 59 113 3.0 7.0 0.00 0.11 0.02 86 1010.8
20260508074304 59 119 2.0 7.0 0.00 0.11 0.02 86 1010.8
20260508074141 59 59 2.0 7.0 0.00 0.11 0.02 86 1010.8
20260508074003 59 87 3.0 7.0 0.00 0.11 0.02 86 1010.7
20260508073836 58 95 3.0 7.0 0.00 0.11 0.02 86 1010.8
20260508073812 58 102 3.0 7.0 0.00 0.11 0.02 86 1010.8
20260508073632 58 120 4.0 8.0 0.00 0.11 0.02 86 1010.8
20260508073458 58 94 4.0 8.0 0.00 0.11 0.02 86 1010.8
20260508073123 58 71 3.0 8.0 0.00 0.11 0.02 86 1010.7
20260508072942 58 82 4.0 8.0 0.00 0.11 0.02 86 1010.7
20260508072819 58 77 5.0 8.0 0.00 0.11 0.02 86 1010.7
20260508072747 58 121 4.0 8.0 0.00 0.11 0.02 86 1010.7
20260508072615 58 119 4.0 10.0 0.00 0.11 0.02 86 1010.7
20260508072114 58 96 5.0 10.0 0.00 0.11 0.02 86 1010.6
20260508071927 58 119 6.0 10.0 0.00 0.11 0.02 86 1010.7
20260508071810 58 115 4.0 10.0 0.00 0.11 0.02 86 1010.6
20260508071350 58 107 4.0 9.0 0.00 0.11 0.02 87 1010.6
20260508070940 57 82 3.0 9.0 0.00 0.11 0.02 87 1010.6
20260508070753 57 115 5.0 10.0 0.00 0.12 0.02 87 1010.6
20260508070607 57 112 6.0 10.0 0.00 0.12 0.02 87 1010.6
20260508070452 57 134 5.0 10.0 0.00 0.12 0.02 87 1010.6
20260508070359 57 90 5.0 10.0 0.00 0.12 0.02 87 1010.5
20260508070218 57 109 6.0 10.0 0.00 0.12 0.02 87 1010.6
20260508070037 57 101 7.0 10.0 0.00 0.12 0.02 88 1010.6
20260508065620 57 86 4.0 9.0 0.01 0.12 0.02 88 1010.7
20260508065440 57 81 4.0 8.0 0.01 0.12 0.02 89 1010.7
20260508065332 57 52 4.0 8.0 0.01 0.12 0.02 89 1010.7
20260508064847 57 109 3.0 8.0 0.01 0.12 0.02 89 1010.6
20260508064708 57 124 4.0 8.0 0.01 0.12 0.02 89 1010.6
20260508064653 57 132 4.0 8.0 0.01 0.12 0.02 90 1010.6
20260508064504 57 71 4.0 8.0 0.01 0.12 0.02 90 1010.7
20260508064323 56 108 3.0 6.0 0.01 0.12 0.02 90 1010.7
20260508064222 56 126 3.0 6.0 0.01 0.12 0.02 90 1010.7
20260508063332 56 101 2.0 6.0 0.01 0.12 0.02 92 1010.6
20260508062142 56 96 3.0 6.0 0.01 0.12 0.02 92 1010.7
20260508061555 56 69 4.0 8.0 0.01 0.12 0.02 92 1010.6
20260508061355 55 62 3.0 8.0 0.01 0.12 0.02 92 1010.6
20260508061217 55 92 3.0 8.0 0.01 0.12 0.02 92 1010.6
20260508061117 55 60 4.0 8.0 0.01 0.12 0.02 92 1010.6
20260508060621 55 62 5.0 8.0 0.01 0.12 0.02 92 1010.7
20260508060426 55 78 3.0 7.0 0.01 0.13 0.02 93 1010.6
20260508060229 55 67 4.0 6.0 0.01 0.13 0.02 93 1010.6
20260508060045 55 66 4.0 6.0 0.01 0.13 0.02 93 1010.6
20260508055946 55 74 4.0 6.0 0.01 0.13 0.02 93 1010.5
20260508055842 55 73 4.0 6.0 0.01 0.13 0.02 93 1010.6
20260508055700 55 61 3.0 6.0 0.01 0.13 0.02 93 1010.6
20260508055517 55 49 4.0 6.0 0.01 0.13 0.02 93 1010.6
20260508055323 55 65 3.0 5.0 0.01 0.13 0.02 94 1010.6
20260508055140 55 75 3.0 6.0 0.01 0.13 0.02 94 1010.7
20260508055043 54 71 4.0 6.0 0.01 0.13 0.02 94 1010.5
20260508054934 54 72 3.0 6.0 0.01 0.13 0.02 94 1010.7
20260508054754 54 92 3.0 6.0 0.01 0.13 0.02 94 1010.5
20260508054602 54 89 3.0 6.0 0.01 0.13 0.02 94 1010.6
20260508054407 54 73 3.0 7.0 0.00 0.12 0.02 94 1010.6
20260508054222 54 103 2.0 7.0 0.00 0.12 0.02 94 1010.6
20260508054126 54 92 3.0 7.0 0.00 0.12 0.02 95 1010.5
20260508054021 54 86 3.0 7.0 0.00 0.12 0.02 95 1010.6
20260508053837 54 53 3.0 7.0 0.00 0.12 0.02 95 1010.6
20260508053646 54 86 3.0 7.0 0.00 0.12 0.02 95 1010.6
20260508053449 54 71 3.0 7.0 0.00 0.12 0.02 94 1010.6
20260508053305 54 78 4.0 7.0 0.00 0.12 0.02 95 1010.7
20260508053210 54 80 4.0 7.0 0.00 0.12 0.02 95 1010.5
20260508053103 53 78 4.0 7.0 0.00 0.12 0.02 95 1010.5
20260508052921 53 76 4.0 7.0 0.00 0.12 0.02 95 1010.6
20260508052735 53 69 3.0 7.0 0.00 0.12 0.02 95 1010.6
20260508052538 53 80 3.0 5.0 0.00 0.12 0.02 95 1010.5
20260508052104 53 74 3.0 5.0 0.00 0.12 0.02 95 1010.6
20260508051956 53 92 3.0 5.0 0.00 0.12 0.02 95 1010.6
20260508051820 53 74 3.0 5.0 0.00 0.12 0.02 94 1010.6
20260508051631 53 61 3.0 5.0 0.00 0.13 0.02 95 1010.6
20260508051446 53 76 3.0 4.0 0.00 0.13 0.02 94 1010.6
20260508051307 53 68 2.0 4.0 0.00 0.13 0.02 94 1010.6
20260508051207 53 67 1.0 4.0 0.00 0.13 0.02 94 1010.6
20260508051108 53 85 1.0 4.0 0.00 0.13 0.02 94 1010.6
20260508050946 53 86 2.0 4.0 0.00 0.13 0.02 94 1010.6
20260508050758 53 86 2.0 4.0 0.00 0.13 0.02 94 1010.5
20260508050610 53 74 3.0 4.0 0.00 0.13 0.02 94 1010.5
20260508050126 53 86 3.0 4.0 0.00 0.13 0.02 94 1010.5
20260508050016 53 82 2.0 4.0 0.00 0.13 0.02 94 1010.5
20260508045836 53 87 2.0 3.0 0.00 0.13 0.02 94 1010.5
20260508045445 53 82 2.0 3.0 0.00 0.13 0.02 94 1010.6
20260508044933 53 107 1.0 4.0 0.00 0.13 0.02 94 1010.5
20260508044158 54 60 2.0 4.0 0.00 0.13 0.02 94 1010.4
20260508044018 54 61 3.0 4.0 0.00 0.13 0.02 94 1010.5
20260508043835 54 59 2.0 3.0 0.00 0.13 0.02 94 1010.4
20260508043702 54 67 2.0 3.0 0.00 0.13 0.02 94 1010.3
20260508043255 54 45 2.0 3.0 0.00 0.13 0.02 94 1010.3
20260508043129 54 75 1.0 3.0 0.00 0.13 0.02 94 1010.4
20260508043003 54 63 1.0 4.0 0.00 0.13 0.02 93 1010.4
20260508042836 54 69 2.0 4.0 0.00 0.13 0.02 93 1010.3
20260508042413 54 74 2.0 4.0 0.00 0.13 0.02 93 1010.4
20260508041942 54 80 2.0 4.0 0.00 0.13 0.02 93 1010.4
20260508041754 54 63 2.0 4.0 0.00 0.13 0.02 93 1010.4
20260508041601 54 72 2.0 4.0 0.00 0.13 0.02 93 1010.4
20260508041416 54 60 3.0 4.0 0.00 0.13 0.02 93 1010.3
20260508041318 54 59 3.0 4.0 0.00 0.13 0.02 93 1010.4
20260508040840 54 67 3.0 4.0 0.00 0.13 0.02 93 1010.3
20260508040654 54 82 3.0 4.0 0.00 0.13 0.02 93 1010.4
20260508040459 54 63 2.0 3.0 0.00 0.13 0.02 93 1010.4
20260508040347 54 61 2.0 3.0 0.00 0.13 0.02 93 1010.4
20260508040009 54 61 2.0 3.0 0.00 0.13 0.02 93 1010.4
20260508035859 54 74 1.0 2.0 0.00 0.13 0.02 93 1010.4
20260508035725 55 88 0.0 2.0 0.00 0.13 0.02 93 1010.4
20260508035624 55 88 0.0 3.0 0.00 0.13 0.02 93 1010.4
20260508035528 55 88 0.0 3.0 0.00 0.13 0.02 93 1010.4
20260508035503 55 88 1.0 4.0 0.00 0.13 0.02 93 1010.4
20260508035420 55 88 1.0 4.0 0.00 0.13 0.02 93 1010.4
20260508035248 55 82 2.0 4.0 0.00 0.13 0.02 93 1010.5
20260508035128 55 82 2.0 4.0 0.00 0.13 0.02 92 1010.4
20260508035118 55 82 2.0 4.0 0.00 0.13 0.02 92 1010.5
20260508034919 55 113 2.0 4.0 0.00 0.13 0.02 92 1010.5
20260508034739 55 112 2.0 4.0 0.00 0.13 0.02 92 1010.5
20260508034334 55 107 2.0 4.0 0.00 0.13 0.02 92 1010.5
20260508033834 55 131 3.0 4.0 0.00 0.13 0.02 92 1010.5
20260508033810 55 127 3.0 4.0 0.00 0.13 0.02 92 1010.5
20260508033620 55 119 3.0 4.0 0.00 0.13 0.02 92 1010.5
20260508033436 55 120 2.0 3.0 0.00 0.13 0.02 92 1010.5
20260508033402 55 126 2.0 3.0 0.00 0.13 0.02 92 1010.6
20260508033247 55 146 2.0 3.0 0.00 0.13 0.02 92 1010.6
20260508033104 55 135 2.0 3.0 0.00 0.14 0.02 92 1010.6
20260508033012 56 134 2.0 3.0 0.00 0.14 0.02 92 1010.6
20260508032929 56 134 2.0 3.0 0.00 0.14 0.02 92 1010.6
20260508032828 56 134 2.0 3.0 0.00 0.14 0.02 92 1010.6
20260508032707 56 130 1.0 3.0 0.00 0.14 0.02 91 1010.6
20260508032647 56 127 1.0 3.0 0.00 0.14 0.02 91 1010.6
20260508032523 56 140 1.0 3.0 0.00 0.14 0.02 91 1010.7
20260508032349 56 155 1.0 3.0 0.00 0.14 0.02 91 1010.6
20260508032241 56 167 1.0 3.0 0.00 0.14 0.02 91 1010.6
20260508032206 56 167 1.0 3.0 0.00 0.14 0.02 91 1010.7
20260508032100 56 155 1.0 2.0 0.00 0.14 0.02 91 1010.7
20260508031715 56 144 0.0 3.0 0.00 0.14 0.02 91 1010.6
20260508031558 56 124 0.0 3.0 0.00 0.14 0.02 91 1010.6
20260508031441 56 124 1.0 3.0 0.00 0.14 0.02 91 1010.4
20260508030342 56 81 2.0 4.0 0.00 0.14 0.02 92 1010.4
20260508030310 56 101 2.0 4.0 0.00 0.14 0.02 92 1010.5
20260508030153 56 106 2.0 4.0 0.00 0.14 0.02 92 1010.4
20260508030014 56 120 1.0 4.0 0.00 0.14 0.02 91 1010.5
20260508025905 56 84 1.0 2.0 0.00 0.14 0.02 91 1010.6
20260508025457 56 112 0.0 2.0 0.00 0.14 0.02 91 1010.6
20260508025406 56 122 0.0 2.0 0.00 0.14 0.02 91 1010.7
20260508025346 56 122 0.0 2.0 0.00 0.14 0.02 91 1010.6
20260508025257 56 122 0.0 2.0 0.00 0.14 0.02 91 1010.6
20260508025153 56 122 1.0 2.0 0.00 0.14 0.02 91 1010.7
20260508025054 56 122 1.0 2.0 0.01 0.14 0.02 91 1010.7
20260508025013 56 119 2.0 2.0 0.01 0.14 0.02 91 1010.7
20260508024857 56 101 1.0 2.0 0.01 0.14 0.02 91 1010.7
20260508024650 56 111 1.0 2.0 0.01 0.15 0.02 91 1010.7
20260508024528 56 76 1.0 2.0 0.01 0.15 0.02 91 1010.7
20260508024407 56 77 1.0 2.0 0.01 0.15 0.02 92 1010.6
20260508024314 56 84 1.0 2.0 0.01 0.15 0.02 92 1010.7
20260508024218 56 78 1.0 2.0 0.01 0.15 0.02 92 1010.7
20260508023731 56 103 0.0 3.0 0.01 0.15 0.02 92 1010.7
20260508023619 56 103 1.0 3.0 0.01 0.15 0.02 92 1010.7
20260508023507 56 103 1.0 3.0 0.01 0.15 0.02 92 1010.8
20260508023422 56 96 2.0 4.0 0.01 0.15 0.02 92 1010.7
20260508023315 56 108 2.0 4.0 0.01 0.15 0.02 92 1010.7
20260508023153 56 120 1.0 4.0 0.01 0.15 0.02 92 1010.5
20260508022803 56 84 2.0 4.0 0.01 0.15 0.02 92 1010.6
20260508022624 56 85 2.0 4.0 0.01 0.15 0.02 92 1010.6
20260508022447 56 88 2.0 4.0 0.01 0.15 0.02 92 1010.6
20260508022351 56 67 2.0 4.0 0.01 0.15 0.02 92 1010.6
20260508022243 56 79 3.0 4.0 0.01 0.15 0.02 92 1010.5
20260508022109 56 82 3.0 4.0 0.01 0.15 0.02 92 1010.6
20260508021925 56 83 2.0 4.0 0.01 0.15 0.02 92 1010.6
20260508021043 56 63 3.0 4.0 0.01 0.15 0.02 92 1010.6
20260508020933 56 93 3.0 4.0 0.01 0.15 0.02 92 1010.6
20260508020756 56 81 3.0 4.0 0.01 0.15 0.02 92 1010.6
20260508020610 56 78 3.0 4.0 0.01 0.15 0.02 92 1010.5
20260508015806 56 72 2.0 3.0 0.01 0.16 0.02 92 1010.6
20260508014928 56 84 1.0 3.0 0.01 0.16 0.02 92 1010.6
20260508014747 56 85 2.0 3.0 0.01 0.16 0.02 92 1010.6
20260508014552 56 82 2.0 3.0 0.01 0.16 0.02 93 1010.6
20260508014331 56 110 2.0 4.0 0.01 0.16 0.02 93 1010.7
20260508014250 56 105 2.0 4.0 0.00 0.15 0.02 93 1010.7
20260508014134 56 88 1.0 4.0 0.00 0.15 0.01 93 1010.7
20260508013949 56 93 2.0 4.0 0.00 0.15 0.01 93 1010.8
20260508013832 56 78 2.0 4.0 0.00 0.15 0.01 93 1010.7
20260508013745 56 96 2.0 4.0 0.00 0.15 0.01 93 1010.7
20260508013619 55 80 2.0 4.0 0.00 0.15 0.01 93 1010.8
20260508013357 55 74 2.0 4.0 0.00 0.15 0.01 93 1010.8
20260508013322 55 94 2.0 4.0 0.00 0.15 0.01 93 1010.6
20260508013157 55 82 2.0 3.0 0.00 0.15 0.01 93 1010.8
20260508012554 55 44 0.0 2.0 0.00 0.15 0.01 93 1010.8
20260508012524 55 44 0.0 2.0 0.00 0.15 0.01 93 1010.9
20260508012337 55 44 0.0 0.0 0.00 0.15 0.01 93 1010.8
20260508012117 55 44 0.0 0.0 0.00 0.15 0.01 93 1010.9
20260508012049 55 44 0.0 0.0 0.00 0.15 0.01 93 1010.8
20260508011922 55 44 0.0 0.0 0.00 0.15 0.01 93 1010.8
20260508011722 55 44 0.0 0.0 0.00 0.15 0.01 93 1010.8
20260508011642 55 44 0.0 0.0 0.00 0.15 0.01 92 1010.9
20260508011614 55 44 0.0 0.0 0.00 0.15 0.01 92 1010.8
20260508011527 55 44 0.0 0.0 0.00 0.16 0.01 92 1010.8
20260508011356 56 44 0.0 0.0 0.00 0.16 0.01 92 1010.9
20260508011341 56 44 0.0 0.0 0.00 0.16 0.01 92 1010.8
20260508011246 56 44 0.0 0.0 0.00 0.16 0.01 92 1010.9
20260508011100 55 44 0.0 0.0 0.00 0.16 0.01 92 1010.9
20260508011035 56 44 0.0 0.0 0.00 0.16 0.01 92 1010.8
20260508010959 56 44 0.0 0.0 0.00 0.16 0.01 92 1010.8
20260508010604 56 44 0.0 0.0 0.00 0.16 0.01 92 1011.0
20260508010249 55 44 0.0 0.0 0.00 0.16 0.01 92 1010.9
20260508005858 55 44 0.0 0.0 0.00 0.16 0.01 92 1011.0
20260508005814 55 44 0.0 0.0 0.00 0.16 0.01 92 1010.9
20260508005116 55 44 0.0 0.0 0.00 0.16 0.01 92 1011.0
20260508005011 55 44 0.0 1.0 0.00 0.16 0.01 92 1010.9
20260508004820 55 44 0.0 1.0 0.00 0.16 0.01 92 1011.0
20260508004754 55 44 0.0 2.0 0.00 0.16 0.01 92 1011.1
20260508004420 55 44 0.0 2.0 0.00 0.16 0.01 92 1011.1
20260508004249 55 44 0.0 2.0 0.00 0.16 0.01 92 1011.1
20260508003750 55 44 1.0 2.0 0.00 0.16 0.01 92 1011.1
20260508003701 55 44 1.0 2.0 0.00 0.16 0.01 92 1011.1
20260508003603 55 44 0.0 2.0 0.00 0.16 0.01 92 1011.1
20260508003458 55 44 0.0 0.0 0.00 0.17 0.01 92 1011.1
20260508003255 55 44 0.0 0.0 0.00 0.17 0.01 91 1011.0
20260508002957 65 68 1.0 3.0 0.01 0.24 0.18 70 1010.6
20260508002857 55 44 0.0 0.0 0.00 0.17 0.01 91 1011.0
20260508002706 55 44 0.0 0.0 0.00 0.17 0.01 91 1011.1
20260508002633 56 44 0.0 0.0 0.00 0.17 0.01 91 1011.1
20260508002548 56 44 0.0 0.0 0.00 0.17 0.01 91 1011.1
20260508002456 56 44 0.0 0.0 0.00 0.17 0.01 91 1011.1
20260508002329 56 44 0.0 0.0 0.00 0.17 0.01 91 1011.1
20260508002238 56 44 0.0 0.0 0.00 0.17 0.01 91 1011.1
20260508001847 56 44 0.0 0.0 0.00 0.17 0.01 90 1011.2
20260508001801 56 44 0.0 0.0 0.00 0.17 0.01 90 1011.2
20260508001708 56 44 0.0 0.0 0.00 0.17 0.01 90 1011.2
20260508001338 56 44 0.0 0.0 0.00 0.17 0.01 90 1011.2
20260508001247 56 44 0.0 0.0 0.00 0.17 0.01 90 1011.2
20260508001137 56 44 0.0 0.0 0.01 0.17 0.01 90 1011.3
20260508001058 56 44 0.0 0.0 0.01 0.17 0.01 90 1011.2
20260508001003 56 44 0.0 0.0 0.01 0.17 0.01 90 1011.2
20260508000531 56 44 0.0 0.0 0.01 0.17 0.01 90 1011.3
20260508000115 56 44 0.0 0.0 0.01 0.17 0.01 89 1011.4
20260508000057 56 44 0.0 0.0 0.01 0.17 0.01 89 1011.4
20260507235734 56 44 0.0 0.0 0.01 0.17 0.01 89 1011.5
20260507234832 56 44 0.0 0.0 0.01 0.17 0.01 89 1011.5
20260507234628 56 44 0.0 1.0 0.01 0.17 0.01 89 1011.4
20260507234524 56 44 0.0 1.0 0.01 0.17 0.01 89 1011.3
20260507234440 56 44 0.0 1.0 0.01 0.17 0.01 89 1011.4
20260507234312 56 44 0.0 1.0 0.01 0.17 0.01 89 1011.3
20260507233938 56 44 0.0 1.0 0.01 0.17 0.01 88 1011.4
20260507233735 56 44 0.0 1.0 0.01 0.17 0.01 88 1011.3
20260507233706 56 44 0.0 1.0 0.01 0.17 0.01 88 1011.2
20260507233225 56 44 0.0 1.0 0.01 0.17 0.01 88 1011.2
20260507233125 56 44 0.0 1.0 0.01 0.17 0.01 88 1011.3
20260507233106 56 44 0.0 1.0 0.01 0.17 0.01 88 1011.4
20260507233020 56 44 0.0 1.0 0.01 0.17 0.01 88 1011.3
20260507232602 56 44 0.0 0.0 0.01 0.17 0.01 88 1011.3
20260507232525 56 44 0.0 0.0 0.01 0.17 0.01 88 1011.4
20260507232011 56 44 0.0 0.0 0.01 0.18 0.01 88 1011.4
20260507231938 56 44 0.0 0.0 0.01 0.18 0.01 88 1011.3
20260507231759 56 44 0.0 0.0 0.01 0.18 0.01 88 1011.3
20260507231549 56 44 0.0 0.0 0.01 0.18 0.01 88 1011.3
20260507231526 56 44 0.0 0.0 0.01 0.18 0.01 88 1011.4
20260507231426 66 87 2.0 6.0 0.00 0.24 0.17 69 1010.4
20260507231341 56 44 0.0 0.0 0.01 0.18 0.01 88 1011.4
20260507231235 56 44 0.0 0.0 0.01 0.18 0.01 88 1011.3
20260507231030 56 44 0.0 0.0 0.01 0.18 0.01 88 1011.3
20260507230942 56 44 0.0 0.0 0.01 0.18 0.01 88 1011.3
20260507230923 66 86 2.0 5.0 0.00 0.24 0.17 68 1010.5
20260507230824 56 44 0.0 0.0 0.01 0.18 0.01 88 1011.4
20260507230615 56 44 0.0 0.0 0.00 0.17 0.00 88 1011.3
20260507230514 57 44 0.0 0.0 0.00 0.17 0.00 88 1011.3
20260507230426 57 44 0.0 0.0 0.00 0.17 0.00 87 1011.3
20260507230240 57 44 0.0 0.0 0.00 0.17 0.00 87 1011.3
20260507230210 57 44 0.0 1.0 0.00 0.17 0.00 87 1011.4
20260507230121 57 44 0.0 1.0 0.00 0.17 0.00 87 1011.3
20260507225940 57 44 0.0 2.0 0.00 0.17 0.00 87 1011.3
20260507225908 57 44 0.0 3.0 0.00 0.17 0.00 87 1011.3
20260507225839 57 44 0.0 3.0 0.00 0.17 0.00 87 1011.3
20260507225746 57 44 0.0 3.0 0.00 0.17 0.00 87 1011.2
20260507225706 57 44 1.0 3.0 0.00 0.17 0.00 87 1011.2
20260507225624 57 44 1.0 3.0 0.00 0.18 0.00 87 1011.2
20260507225227 57 44 2.0 3.0 0.00 0.18 0.00 87 1011.1
20260507224535 57 44 0.0 2.0 0.00 0.18 0.00 87 1011.2
20260507224344 57 44 0.0 1.0 0.00 0.18 0.00 87 1011.1
20260507224313 57 44 0.0 1.0 0.00 0.18 0.00 87 1011.2
20260507224221 57 44 0.0 2.0 0.00 0.18 0.00 87 1011.2
20260507224136 57 44 0.0 2.0 0.00 0.18 0.00 87 1011.1
20260507224104 57 44 0.0 2.0 0.00 0.18 0.00 87 1011.2
20260507223704 57 44 0.0 3.0 0.00 0.18 0.00 86 1011.2
20260507223550 57 44 0.0 3.0 0.00 0.18 0.00 86 1011.3
20260507223522 57 44 0.0 3.0 0.00 0.18 0.00 86 1011.1
20260507223407 57 44 1.0 3.0 0.00 0.18 0.00 86 1011.1
20260507223236 58 55 2.0 3.0 0.00 0.18 0.00 85 1011.1
20260507223152 58 57 2.0 3.0 0.00 0.18 0.00 85 1011.1
20260507222652 58 49 2.0 3.0 0.00 0.18 0.00 85 1011.1
20260507222526 58 56 0.0 2.0 0.00 0.18 0.00 85 1011.0
20260507221811 58 78 0.0 0.0 0.00 0.19 0.00 85 1011.2
20260507221738 58 78 0.0 0.0 0.00 0.19 0.00 85 1011.2
20260507221658 58 78 0.0 0.0 0.00 0.19 0.00 85 1011.2
20260507221624 58 78 0.0 0.0 0.00 0.19 0.00 85 1011.2
20260507221540 58 78 0.0 0.0 0.00 0.19 0.00 85 1011.2
20260507220800 58 78 0.0 0.0 0.00 0.19 0.00 85 1011.1
20260507220712 58 78 0.0 0.0 0.00 0.19 0.00 85 1011.1
20260507220623 58 78 0.0 0.0 0.00 0.19 0.00 85 1011.2
20260507220230 58 78 0.0 0.0 0.00 0.19 0.19 84 1011.1
20260507220155 58 78 0.0 0.0 0.00 0.19 0.19 84 1011.2
20260507220031 58 78 0.0 0.0 0.00 0.19 0.19 84 1011.2
20260507220007 58 78 0.0 0.0 0.00 0.19 0.19 84 1011.1
20260507215906 59 78 0.0 0.0 0.00 0.19 0.19 83 1011.2
20260507215521 59 78 0.0 0.0 0.00 0.19 0.19 83 1011.1
20260507215437 59 78 0.0 0.0 0.00 0.19 0.19 83 1011.2
20260507215337 59 78 0.0 0.0 0.00 0.19 0.19 83 1011.3
20260507214723 59 78 0.0 0.0 0.01 0.20 0.19 83 1011.2
20260507214230 59 78 0.0 0.0 0.01 0.20 0.19 82 1011.2
20260507213907 59 78 0.0 0.0 0.01 0.20 0.19 82 1011.2
20260507213656 59 78 0.0 0.0 0.01 0.20 0.19 82 1011.2
20260507213649 59 78 0.0 0.0 0.01 0.20 0.19 82 1011.2
20260507213606 59 78 0.0 0.0 0.01 0.20 0.19 82 1011.2
20260507213201 60 78 0.0 0.0 0.01 0.20 0.19 82 1011.2
20260507213112 60 78 0.0 0.0 0.01 0.20 0.19 82 1011.2
20260507212606 60 78 0.0 0.0 0.01 0.20 0.19 81 1011.2
20260507212542 60 78 0.0 0.0 0.01 0.20 0.19 81 1011.2
20260507212438 60 78 0.0 0.0 0.01 0.20 0.19 81 1011.1
20260507212252 60 78 0.0 0.0 0.01 0.20 0.19 81 1011.1
20260507212239 60 78 0.0 0.0 0.01 0.20 0.19 81 1011.2
20260507212154 60 78 0.0 0.0 0.01 0.20 0.19 81 1011.1
20260507212116 60 78 0.0 0.0 0.01 0.20 0.19 81 1011.1
20260507212000 60 78 0.0 0.0 0.01 0.20 0.19 81 1011.1
20260507211946 60 78 0.0 0.0 0.01 0.20 0.19 81 1011.1
20260507211502 60 78 0.0 0.0 0.01 0.20 0.19 81 1011.1
20260507211432 60 78 0.0 0.0 0.01 0.20 0.19 81 1011.1
20260507211350 60 78 0.0 0.0 0.01 0.20 0.19 81 1011.2
20260507211027 60 78 0.0 0.0 0.01 0.20 0.19 81 1011.1
20260507210959 60 78 0.0 0.0 0.01 0.20 0.19 81 1011.1
20260507210916 60 78 0.0 0.0 0.01 0.20 0.19 81 1011.1
20260507210754 60 78 0.0 0.0 0.01 0.20 0.19 81 1011.1
20260507210706 60 78 0.0 0.0 0.01 0.20 0.19 81 1011.0
20260507210619 60 78 0.0 0.0 0.01 0.20 0.19 81 1011.1
20260507210542 60 78 0.0 3.0 0.01 0.20 0.19 81 1011.1
20260507210520 60 78 0.0 3.0 0.01 0.20 0.19 81 1011.1
20260507210136 60 78 0.0 3.0 0.01 0.20 0.19 81 1011.1
20260507210129 60 78 0.0 3.0 0.01 0.20 0.19 81 1011.0
20260507205734 60 78 1.0 4.0 0.01 0.20 0.19 80 1011.0
20260507205657 60 70 1.0 4.0 0.00 0.20 0.19 80 1011.0
20260507205551 60 66 2.0 4.0 0.00 0.20 0.18 80 1011.1
20260507205422 60 62 2.0 4.0 0.00 0.20 0.18 80 1011.0
20260507205225 60 73 2.0 4.0 0.00 0.20 0.18 80 1011.0
20260507204700 61 79 0.0 3.0 0.00 0.20 0.18 80 1010.9
20260507204330 61 79 0.0 3.0 0.00 0.20 0.18 80 1010.9
20260507204244 61 79 0.0 3.0 0.00 0.20 0.18 79 1010.9
20260507204155 61 79 0.0 3.0 0.00 0.20 0.18 79 1010.9
20260507204122 61 79 0.0 3.0 0.00 0.20 0.18 79 1010.9
20260507204029 61 79 1.0 3.0 0.00 0.20 0.18 79 1010.9
20260507203907 61 71 1.0 3.0 0.00 0.20 0.18 79 1010.9
20260507203816 61 69 2.0 3.0 0.00 0.20 0.18 79 1010.9
20260507203705 61 80 2.0 3.0 0.00 0.20 0.18 79 1010.9
20260507203526 61 67 1.0 3.0 0.00 0.20 0.18 78 1010.8
20260507203411 61 76 1.0 3.0 0.00 0.20 0.18 78 1010.9
20260507203335 61 62 1.0 3.0 0.00 0.20 0.18 78 1010.8
20260507203212 61 64 0.0 3.0 0.00 0.21 0.18 78 1010.9
20260507203049 62 57 1.0 3.0 0.00 0.21 0.18 78 1011.0
20260507203006 62 57 1.0 3.0 0.00 0.21 0.18 78 1010.9
20260507202859 62 54 0.0 2.0 0.00 0.21 0.18 78 1010.9
20260507202741 62 44 0.0 0.0 0.00 0.21 0.18 77 1011.0
20260507202638 62 44 0.0 0.0 0.00 0.21 0.18 77 1010.9
20260507202330 62 44 0.0 0.0 0.00 0.21 0.18 77 1010.9
20260507202242 62 44 0.0 0.0 0.00 0.21 0.18 77 1011.0
20260507202226 62 44 0.0 0.0 0.00 0.21 0.18 77 1010.9
20260507202146 62 44 0.0 0.0 0.00 0.21 0.18 77 1010.9
20260507201806 62 44 0.0 0.0 0.00 0.21 0.18 77 1010.9
20260507201729 62 44 0.0 0.0 0.00 0.21 0.18 76 1010.9
20260507201636 62 44 0.0 0.0 0.00 0.21 0.18 76 1010.9
20260507201552 62 44 0.0 0.0 0.00 0.21 0.18 76 1010.9
20260507201242 62 44 0.0 0.0 0.00 0.21 0.18 76 1010.9
20260507201204 62 44 0.0 0.0 0.00 0.21 0.18 76 1010.9
20260507200844 63 44 0.0 0.0 0.00 0.22 0.18 76 1010.8
20260507200744 63 44 0.0 0.0 0.00 0.22 0.18 75 1010.8
20260507200642 63 44 0.0 0.0 0.00 0.22 0.18 75 1010.7
20260507200539 63 44 0.0 0.0 0.00 0.22 0.18 75 1010.8
20260507200456 63 44 0.0 0.0 0.01 0.22 0.18 75 1010.8
20260507200130 63 44 0.0 0.0 0.01 0.22 0.18 75 1010.7
20260507200055 63 44 0.0 0.0 0.01 0.22 0.18 75 1010.7
20260507195921 63 44 0.0 0.0 0.01 0.22 0.18 75 1010.8
20260507195824 63 44 0.0 0.0 0.01 0.22 0.18 74 1010.8
20260507195723 63 44 0.0 0.0 0.01 0.22 0.18 75 1010.7
20260507195701 64 44 0.0 0.0 0.01 0.22 0.18 75 1010.7
20260507195326 64 44 0.0 0.0 0.01 0.22 0.18 74 1010.7
20260507195014 64 44 0.0 0.0 0.01 0.23 0.18 74 1010.7
20260507194926 64 44 0.0 0.0 0.01 0.23 0.18 74 1010.7
20260507194824 64 44 0.0 0.0 0.01 0.23 0.18 74 1010.7
20260507194758 64 44 0.0 0.0 0.01 0.23 0.18 74 1010.6
20260507194724 64 44 0.0 0.0 0.01 0.23 0.18 74 1010.5
20260507194638 64 44 0.0 0.0 0.01 0.23 0.18 73 1010.5
20260507194536 64 44 0.0 2.0 0.01 0.23 0.18 73 1010.6
20260507194427 64 44 0.0 2.0 0.01 0.23 0.18 73 1010.6
20260507194326 64 44 0.0 2.0 0.01 0.23 0.18 73 1010.5
20260507194258 64 44 0.0 2.0 0.01 0.23 0.18 73 1010.5
20260507194225 65 44 0.0 2.0 0.01 0.23 0.18 73 1010.5
20260507194113 65 44 1.0 2.0 0.01 0.23 0.18 72 1010.7
20260507193954 65 44 0.0 3.0 0.01 0.23 0.18 72 1010.6
20260507193830 65 58 1.0 3.0 0.01 0.23 0.18 71 1010.7
20260507193707 65 55 0.0 3.0 0.01 0.24 0.18 70 1010.6
20260507193614 65 68 0.0 3.0 0.01 0.24 0.18 70 1010.6
20260507193230 65 68 2.0 3.0 0.01 0.24 0.18 70 1010.6
20260507193040 65 65 2.0 4.0 0.01 0.24 0.18 70 1010.5
20260507192648 66 67 0.0 4.0 0.01 0.24 0.18 70 1010.5
20260507192513 66 108 0.0 4.0 0.01 0.24 0.18 69 1010.5
20260507192437 66 108 1.0 4.0 0.01 0.24 0.18 69 1010.6
20260507192354 66 108 1.0 4.0 0.01 0.24 0.18 69 1010.6
20260507192220 66 90 2.0 4.0 0.01 0.24 0.18 69 1010.5
20260507192035 66 67 2.0 4.0 0.01 0.24 0.18 69 1010.4
20260507191851 66 90 1.0 4.0 0.01 0.24 0.18 69 1010.5
20260507191727 66 96 2.0 5.0 0.00 0.23 0.18 69 1010.5
20260507191632 66 91 1.0 5.0 0.00 0.23 0.17 69 1010.5
20260507191522 66 80 1.0 6.0 0.00 0.23 0.17 69 1010.5
20260507191343 66 67 1.0 6.0 0.00 0.24 0.17 69 1010.4
20260507191214 66 87 2.0 6.0 0.00 0.24 0.17 69 1010.4
20260507190827 66 69 3.0 6.0 0.00 0.24 0.17 68 1010.4
20260507190653 66 71 3.0 6.0 0.00 0.24 0.17 68 1010.4
20260507190554 66 77 3.0 6.0 0.00 0.24 0.17 68 1010.4
20260507190111 66 68 2.0 5.0 0.00 0.24 0.17 68 1010.4
20260507185928 67 63 3.0 5.0 0.00 0.24 0.17 68 1010.4
20260507185751 67 63 2.0 5.0 0.00 0.24 0.17 68 1010.3
20260507185620 67 76 2.0 5.0 0.00 0.24 0.17 68 1010.4
20260507185154 67 55 3.0 4.0 0.00 0.24 0.17 68 1010.3
20260507184821 67 57 2.0 5.0 0.00 0.24 0.17 67 1010.2
20260507184641 67 66 2.0 7.0 0.00 0.24 0.17 68 1010.3
20260507184502 67 90 3.0 7.0 0.00 0.24 0.17 67 1010.2
20260507184406 67 69 3.0 7.0 0.00 0.24 0.17 67 1010.3
20260507183924 67 64 4.0 7.0 0.00 0.24 0.17 67 1010.3
20260507183733 67 63 4.0 7.0 0.00 0.24 0.17 67 1010.2
20260507183540 67 63 5.0 7.0 0.00 0.24 0.17 66 1010.3
20260507183359 67 61 5.0 7.0 0.00 0.24 0.17 66 1010.2
20260507183303 67 73 5.0 9.0 0.00 0.24 0.17 65 1010.2
20260507183214 67 67 5.0 9.0 0.00 0.24 0.17 66 1010.3
20260507183034 67 65 4.0 9.0 0.00 0.24 0.17 66 1010.3
20260507182848 67 59 4.0 9.0 0.00 0.24 0.17 65 1010.3
20260507182214 68 65 4.0 8.0 0.00 0.25 0.17 65 1010.4
20260507182120 68 65 4.0 7.0 0.00 0.25 0.17 66 1010.4
20260507181948 68 71 4.0 7.0 0.00 0.25 0.17 65 1010.5
20260507181755 68 40 4.0 7.0 0.00 0.25 0.17 66 1010.6
20260507181613 68 64 4.0 7.0 0.00 0.25 0.17 66 1010.6
20260507181207 68 52 4.0 8.0 0.00 0.25 0.17 65 1010.6
20260507181027 68 59 3.0 9.0 0.00 0.25 0.17 65 1010.6
20260507180542 68 113 4.0 9.0 0.00 0.25 0.17 64 1010.5
20260507180405 68 92 4.0 9.0 0.00 0.25 0.17 64 1010.6
20260507180310 68 105 5.0 9.0 0.00 0.26 0.17 64 1010.6
20260507180208 68 74 5.0 9.0 0.00 0.26 0.17 64 1010.6
20260507180033 68 144 3.0 8.0 0.00 0.26 0.17 64 1010.6
20260507175734 68 58 3.0 8.0 0.00 0.26 0.17 64 1010.6
20260507175601 68 105 3.0 8.0 0.01 0.26 0.17 64 1010.6
20260507175426 68 109 4.0 8.0 0.01 0.26 0.17 64 1010.6
20260507175330 68 117 5.0 11.0 0.01 0.26 0.17 63 1010.7
20260507175236 68 132 6.0 11.0 0.01 0.26 0.17 63 1010.5
20260507174757 68 81 4.0 11.0 0.01 0.26 0.17 63 1010.6
20260507174745 68 135 4.0 11.0 0.01 0.26 0.17 63 1010.6
20260507174606 68 123 7.0 11.0 0.01 0.26 0.17 63 1010.5
20260507174431 68 105 4.0 11.0 0.01 0.26 0.17 62 1010.6
20260507174035 68 110 5.0 8.0 0.01 0.27 0.17 64 1010.6
20260507173851 68 127 4.0 8.0 0.01 0.27 0.17 63 1010.5
20260507173717 68 140 3.0 8.0 0.01 0.27 0.17 63 1010.5
20260507173701 68 103 3.0 8.0 0.01 0.27 0.17 63 1010.5
20260507173521 68 101 4.0 8.0 0.01 0.27 0.17 63 1010.6
20260507173341 69 132 4.0 8.0 0.01 0.27 0.17 62 1010.6
20260507173301 68 109 4.0 8.0 0.01 0.27 0.17 63 1010.6
20260507173154 68 69 3.0 8.0 0.01 0.27 0.17 63 1010.6
20260507173021 68 101 6.0 8.0 0.01 0.27 0.17 62 1010.5
20260507172851 69 106 6.0 10.0 0.01 0.27 0.17 62 1010.5
20260507172836 69 124 6.0 10.0 0.01 0.27 0.17 62 1010.4
20260507172320 69 115 4.0 12.0 0.01 0.27 0.17 62 1010.5
20260507172214 69 107 6.0 12.0 0.01 0.27 0.17 62 1010.5
20260507171810 69 115 5.0 12.0 0.01 0.28 0.17 62 1010.5
20260507171746 68 108 5.0 11.0 0.01 0.28 0.17 62 1010.6
20260507171606 69 111 7.0 9.0 0.01 0.28 0.17 62 1010.6
20260507171153 69 117 6.0 9.0 0.01 0.28 0.17 62 1010.5
20260507171013 69 98 3.0 9.0 0.01 0.28 0.17 62 1010.5
20260507170331 68 102 6.0 10.0 0.01 0.28 0.17 61 1010.5
20260507170257 68 90 6.0 10.0 0.01 0.28 0.17 61 1010.5
20260507170137 68 107 6.0 10.0 0.01 0.28 0.17 61 1010.5
20260507165956 68 124 6.0 10.0 0.01 0.28 0.17 61 1010.5
20260507165849 68 116 4.0 12.0 0.01 0.28 0.17 62 1010.4
20260507165806 68 113 4.0 12.0 0.01 0.28 0.17 62 1010.6
20260507165114 69 105 6.0 12.0 0.00 0.28 0.17 61 1010.6
20260507164934 69 150 8.0 12.0 0.00 0.28 0.17 61 1010.5
20260507164815 69 138 6.0 10.0 0.00 0.28 0.17 61 1010.5
20260507164725 69 126 6.0 10.0 0.00 0.28 0.17 61 1010.5
20260507164542 69 94 4.0 10.0 0.00 0.28 0.17 60 1010.4
20260507164042 69 87 4.0 10.0 0.00 0.28 0.17 61 1010.5
20260507163859 70 116 4.0 10.0 0.00 0.28 0.17 62 1010.4
20260507163742 69 122 5.0 10.0 0.00 0.28 0.17 60 1010.4
20260507163656 70 154 5.0 10.0 0.00 0.28 0.17 62 1010.4
20260507163520 69 109 6.0 10.0 0.00 0.28 0.17 61 1010.3
20260507163339 69 119 4.0 10.0 0.00 0.28 0.17 61 1010.4
20260507163322 69 88 5.0 11.0 0.00 0.28 0.17 61 1010.4
20260507162930 69 60 6.0 11.0 0.00 0.28 0.17 60 1010.3
20260507162832 69 76 6.0 13.0 0.00 0.28 0.17 62 1010.4
20260507161913 69 111 7.0 14.0 0.00 0.29 0.17 61 1010.3
20260507161809 69 112 6.0 14.0 0.00 0.29 0.17 61 1010.4
20260507161715 69 96 8.0 14.0 0.00 0.29 0.17 61 1010.4
20260507161231 69 173 6.0 14.0 0.00 0.29 0.17 61 1010.3
20260507161042 69 99 8.0 13.0 0.00 0.29 0.17 60 1010.2
20260507160902 69 117 8.0 13.0 0.00 0.29 0.17 61 1010.3
20260507160806 69 82 7.0 13.0 0.00 0.29 0.17 62 1010.3
20260507160712 69 115 8.0 13.0 0.00 0.29 0.17 61 1010.3
20260507155152 69 127 7.0 12.0 0.01 0.30 0.17 63 1010.3
20260507155011 69 132 9.0 15.0 0.01 0.30 0.17 63 1010.2
20260507154830 69 67 7.0 15.0 0.01 0.30 0.17 62 1010.3
20260507154738 69 135 8.0 15.0 0.01 0.30 0.17 62 1010.2
20260507154635 69 97 9.0 15.0 0.01 0.30 0.17 61 1010.3
20260507154458 69 123 9.0 15.0 0.01 0.30 0.17 61 1010.1
20260507154309 69 95 6.0 15.0 0.01 0.30 0.17 62 1010.3
20260507154127 69 94 5.0 13.0 0.01 0.30 0.17 61 1010.3
20260507153738 69 91 6.0 13.0 0.01 0.31 0.17 61 1010.3
20260507153329 69 58 5.0 14.0 0.01 0.31 0.17 62 1010.4
20260507152857 69 101 9.0 14.0 0.01 0.31 0.17 61 1010.3
20260507152801 69 67 10.0 14.0 0.01 0.31 0.17 61 1010.3
20260507152707 69 111 7.0 14.0 0.01 0.31 0.17 61 1010.3
20260507152526 69 93 6.0 14.0 0.01 0.31 0.17 63 1010.4
20260507152335 69 105 9.0 14.0 0.01 0.31 0.17 61 1010.4
20260507151900 69 114 6.0 11.0 0.01 0.31 0.17 62 1010.5
20260507151809 69 80 7.0 11.0 0.01 0.31 0.17 61 1010.6
20260507151711 69 109 7.0 13.0 0.01 0.31 0.17 62 1010.6
20260507151531 69 101 6.0 13.0 0.01 0.31 0.17 62 1010.7
20260507151222 69 88 8.0 13.0 0.01 0.31 0.17 62 1010.6
20260507151038 69 132 8.0 13.0 0.01 0.31 0.17 62 1010.7
20260507150901 69 128 9.0 14.0 0.01 0.31 0.17 62 1010.8
20260507150753 69 87 8.0 14.0 0.01 0.31 0.17 61 1010.7
20260507150659 69 87 7.0 14.0 0.01 0.31 0.17 61 1010.8
20260507150518 69 84 8.0 14.0 0.01 0.32 0.17 62 1010.8
20260507150332 69 61 7.0 14.0 0.01 0.32 0.17 62 1010.8
20260507145930 69 74 8.0 12.0 0.01 0.32 0.17 63 1010.9
20260507145822 68 75 6.0 12.0 0.01 0.32 0.17 62 1010.8
20260507145351 68 105 8.0 12.0 0.00 0.31 0.16 62 1010.9
20260507145145 68 100 6.0 14.0 0.00 0.31 0.16 62 1011.0
20260507145011 68 111 9.0 14.0 0.00 0.31 0.16 62 1010.9
20260507144830 68 98 8.0 14.0 0.00 0.31 0.16 63 1011.1
20260507144735 68 78 9.0 16.0 0.00 0.32 0.16 63 1010.9
20260507144640 68 100 10.0 16.0 0.00 0.32 0.16 63 1011.0
20260507144225 68 92 7.0 16.0 0.00 0.32 0.16 64 1010.9
20260507144044 68 86 9.0 16.0 0.00 0.32 0.16 62 1011.0
20260507143902 68 51 9.0 16.0 0.00 0.32 0.16 62 1011.0
20260507143457 68 45 5.0 11.0 0.00 0.32 0.16 63 1011.1
20260507143142 68 114 7.0 15.0 0.00 0.32 0.16 65 1011.1
20260507143001 68 69 8.0 15.0 0.00 0.32 0.16 65 1011.2
20260507142820 68 134 6.0 15.0 0.00 0.33 0.16 64 1011.2
20260507142727 68 61 7.0 15.0 0.00 0.33 0.16 63 1011.1
20260507142632 68 103 9.0 15.0 0.00 0.33 0.16 63 1011.2
20260507142236 68 124 5.0 15.0 0.01 0.33 0.16 67 1011.4
20260507142058 68 94 7.0 15.0 0.01 0.33 0.16 66 1011.4
20260507141931 68 107 9.0 15.0 0.01 0.33 0.16 66 1011.4
20260507141512 68 105 7.0 14.0 0.01 0.33 0.16 64 1011.5
20260507141207 68 112 8.0 14.0 0.01 0.34 0.16 65 1011.4
20260507141031 67 90 4.0 14.0 0.01 0.34 0.16 65 1011.5
20260507140854 67 107 9.0 14.0 0.01 0.34 0.16 63 1011.5
20260507140752 67 89 9.0 14.0 0.01 0.34 0.16 63 1011.5
20260507140706 67 120 9.0 14.0 0.01 0.34 0.16 63 1011.6
20260507140527 67 90 5.0 12.0 0.01 0.34 0.16 65 1011.6
20260507140256 67 74 8.0 13.0 0.01 0.34 0.16 64 1011.6
20260507135636 67 109 7.0 13.0 0.01 0.34 0.16 63 1011.8
20260507135455 67 55 9.0 13.0 0.01 0.35 0.16 64 1011.8
20260507135313 67 116 7.0 12.0 0.01 0.35 0.16 63 1011.8
20260507135248 67 130 7.0 12.0 0.01 0.35 0.16 63 1011.8
20260507135127 67 77 8.0 14.0 0.01 0.35 0.16 64 1011.8
20260507134626 67 80 8.0 14.0 0.01 0.35 0.16 64 1011.8
20260507134447 67 113 8.0 14.0 0.01 0.35 0.16 64 1011.8
20260507134305 67 78 8.0 14.0 0.01 0.35 0.16 64 1011.8
20260507133852 67 50 6.0 14.0 0.01 0.35 0.16 64 1011.9
20260507133430 67 80 9.0 14.0 0.01 0.35 0.16 63 1012.0
20260507133053 67 115 7.0 13.0 0.01 0.35 0.16 64 1012.1
20260507132925 67 128 6.0 13.0 0.01 0.35 0.16 65 1012.1
20260507132746 67 90 7.0 13.0 0.01 0.35 0.16 66 1012.1
20260507132637 67 125 4.0 11.0 0.01 0.35 0.16 65 1012.1
20260507132556 67 97 4.0 11.0 0.01 0.35 0.16 65 1012.1
20260507132419 67 40 7.0 12.0 0.00 0.35 0.15 65 1012.1
20260507132239 67 74 4.0 12.0 0.00 0.35 0.15 65 1012.1
20260507132214 67 84 4.0 14.0 0.00 0.35 0.15 64 1012.0
20260507132047 66 86 4.0 16.0 0.00 0.35 0.15 64 1012.0
20260507131733 66 121 8.0 16.0 0.00 0.35 0.15 64 1012.3
20260507131327 66 95 8.0 16.0 0.01 0.35 0.15 66 1012.2
20260507131145 66 149 11.0 16.0 0.01 0.35 0.15 65 1012.2
20260507131125 66 149 7.0 16.0 0.01 0.35 0.15 65 1012.2
20260507130951 66 86 4.0 13.0 0.01 0.35 0.15 64 1012.3
20260507130805 66 135 6.0 13.0 0.01 0.35 0.15 62 1012.2
20260507130654 66 103 7.0 13.0 0.01 0.35 0.15 63 1012.3
20260507130605 66 92 7.0 13.0 0.01 0.35 0.15 64 1012.3
20260507130420 66 157 9.0 13.0 0.01 0.35 0.15 64 1012.4
20260507130149 66 100 7.0 14.0 0.01 0.35 0.15 63 1012.4
20260507130008 66 113 6.0 14.0 0.01 0.35 0.15 66 1012.4
20260507125558 65 96 9.0 14.0 0.01 0.35 0.15 64 1012.4
20260507125417 66 98 6.0 14.0 0.01 0.36 0.15 65 1012.4
20260507124921 66 103 7.0 12.0 0.01 0.36 0.15 66 1012.4
20260507124741 65 106 4.0 12.0 0.01 0.36 0.15 66 1012.5
20260507124645 65 49 4.0 12.0 0.01 0.36 0.15 66 1012.5
20260507124551 65 119 5.0 13.0 0.01 0.36 0.15 68 1012.5
20260507124415 65 116 7.0 13.0 0.01 0.36 0.15 64 1012.6
20260507124222 65 74 8.0 13.0 0.01 0.36 0.15 65 1012.6
20260507123552 65 78 8.0 13.0 0.01 0.36 0.15 64 1012.7
20260507123458 65 55 6.0 13.0 0.01 0.36 0.15 68 1012.6
20260507123317 65 107 6.0 13.0 0.01 0.36 0.15 69 1012.5
20260507123130 65 48 6.0 13.0 0.01 0.36 0.15 67 1012.6
20260507122945 65 35 9.0 13.0 0.01 0.37 0.15 65 1012.5
20260507122805 65 40 8.0 12.0 0.01 0.37 0.15 65 1012.6
20260507122709 65 51 9.0 12.0 0.01 0.37 0.15 67 1012.6
20260507122615 65 78 7.0 13.0 0.01 0.37 0.15 66 1012.6
20260507121623 65 139 8.0 14.0 0.01 0.37 0.15 64 1012.7
20260507121422 65 119 8.0 15.0 0.01 0.37 0.15 65 1012.8
20260507121334 65 86 8.0 15.0 0.02 0.37 0.15 64 1012.8
20260507121229 65 65 5.0 15.0 0.01 0.36 0.15 66 1012.7
20260507121033 64 135 7.0 15.0 0.01 0.36 0.14 65 1012.7
20260507120858 64 49 11.0 15.0 0.01 0.36 0.14 65 1012.9
20260507120843 64 92 11.0 15.0 0.01 0.36 0.14 65 1012.9
20260507120700 64 44 6.0 15.0 0.01 0.36 0.14 65 1012.9
20260507120519 64 42 6.0 12.0 0.01 0.36 0.14 66 1012.8
20260507120438 64 75 6.0 12.0 0.01 0.36 0.14 66 1012.8
20260507120330 64 78 8.0 12.0 0.01 0.36 0.14 66 1012.8
20260507120153 64 80 7.0 12.0 0.01 0.36 0.14 65 1012.9
20260507120024 64 67 7.0 11.0 0.01 0.37 0.14 67 1012.9
20260507120006 64 37 7.0 11.0 0.01 0.37 0.14 66 1012.9
20260507115824 64 82 6.0 12.0 0.01 0.37 0.14 68 1013.0
20260507115648 64 114 4.0 12.0 0.01 0.37 0.14 69 1012.9
20260507115258 64 53 4.0 12.0 0.01 0.37 0.14 67 1012.9
20260507115119 64 9 8.0 12.0 0.01 0.37 0.14 68 1013.0
20260507114957 64 61 7.0 12.0 0.01 0.37 0.14 68 1013.1
20260507114930 64 63 7.0 12.0 0.01 0.37 0.14 68 1013.0
20260507114751 64 128 7.0 10.0 0.01 0.37 0.14 68 1013.0
20260507114614 64 46 6.0 10.0 0.01 0.37 0.14 69 1013.1
20260507114535 64 105 5.0 10.0 0.01 0.37 0.14 69 1013.2
20260507114424 64 100 5.0 10.0 0.01 0.37 0.14 69 1013.2
20260507114243 64 67 6.0 10.0 0.01 0.37 0.14 70 1013.2
20260507114121 64 80 5.0 10.0 0.01 0.37 0.14 70 1013.1
20260507114055 64 121 5.0 10.0 0.01 0.37 0.14 70 1013.1
20260507113911 64 107 6.0 10.0 0.01 0.37 0.14 68 1013.2
20260507113733 64 99 5.0 10.0 0.01 0.37 0.14 70 1013.2
20260507113704 64 110 5.0 10.0 0.01 0.37 0.14 70 1013.2
20260507113545 64 178 6.0 10.0 0.01 0.38 0.14 70 1013.3
20260507113401 64 121 5.0 12.0 0.01 0.38 0.14 68 1013.3
20260507112731 63 94 7.0 12.0 0.01 0.38 0.14 68 1013.4
20260507112334 63 112 5.0 9.0 0.01 0.38 0.14 67 1013.4
20260507112217 63 98 6.0 9.0 0.01 0.38 0.14 67 1013.4
20260507112144 63 130 6.0 9.0 0.01 0.38 0.14 67 1013.5
20260507111122 63 105 6.0 11.0 0.01 0.37 0.13 66 1013.5
20260507110957 63 84 5.0 11.0 0.01 0.37 0.13 64 1013.6
20260507110919 63 102 5.0 11.0 0.01 0.37 0.13 65 1013.4
20260507110736 63 49 6.0 11.0 0.01 0.37 0.13 65 1013.5
20260507110554 62 103 4.0 11.0 0.01 0.37 0.13 68 1013.6
20260507110529 62 109 4.0 11.0 0.01 0.37 0.13 67 1013.5
20260507110357 62 75 6.0 11.0 0.01 0.37 0.13 66 1013.5
20260507110215 62 55 6.0 11.0 0.01 0.37 0.13 66 1013.6
20260507110110 62 67 6.0 11.0 0.01 0.38 0.13 66 1013.6
20260507110021 62 79 6.0 11.0 0.01 0.38 0.13 66 1013.6
20260507105842 62 76 6.0 11.0 0.01 0.38 0.13 68 1013.7
20260507105709 62 64 5.0 11.0 0.01 0.38 0.13 67 1013.7
20260507105644 62 90 4.0 10.0 0.01 0.38 0.13 67 1013.7
20260507105517 62 74 3.0 10.0 0.01 0.38 0.13 68 1013.7
20260507105339 62 92 6.0 10.0 0.01 0.38 0.13 67 1013.8
20260507104702 62 77 4.0 10.0 0.01 0.38 0.13 67 1013.7
20260507104653 62 90 4.0 10.0 0.01 0.38 0.13 67 1013.7
20260507104511 62 83 6.0 10.0 0.01 0.38 0.13 67 1013.8
20260507104059 62 109 7.0 11.0 0.01 0.38 0.13 69 1013.8
20260507103912 62 59 4.0 11.0 0.01 0.38 0.13 69 1013.8
20260507103651 62 74 7.0 11.0 0.01 0.38 0.13 69 1013.8
20260507103502 61 90 5.0 11.0 0.01 0.38 0.13 68 1013.9
20260507103318 61 77 4.0 9.0 0.01 0.38 0.13 68 1013.9
20260507103005 61 58 6.0 9.0 0.01 0.38 0.13 69 1013.8
20260507102828 61 115 3.0 9.0 0.01 0.39 0.13 69 1013.9
20260507102632 61 84 5.0 9.0 0.01 0.39 0.13 71 1013.9
20260507102451 61 116 6.0 9.0 0.01 0.39 0.13 75 1013.9
20260507102310 61 128 4.0 9.0 0.01 0.39 0.13 75 1013.9
20260507101949 60 78 4.0 9.0 0.01 0.39 0.13 75 1013.9
20260507101816 60 89 6.0 9.0 0.00 0.38 0.13 76 1014.0
20260507101623 60 59 3.0 9.0 0.00 0.38 0.13 76 1014.0
20260507101439 60 117 5.0 10.0 0.01 0.38 0.13 75 1014.0
20260507101255 60 91 5.0 10.0 0.01 0.38 0.13 75 1013.9
20260507100843 60 65 6.0 10.0 0.01 0.38 0.13 74 1013.9
20260507100701 60 93 6.0 10.0 0.01 0.38 0.13 76 1014.0
20260507100512 60 111 6.0 10.0 0.01 0.38 0.13 79 1013.9
20260507100331 60 77 6.0 10.0 0.01 0.38 0.13 78 1013.9
20260507100151 60 78 7.0 10.0 0.01 0.38 0.13 78 1014.0
20260507100059 60 92 5.0 10.0 0.01 0.38 0.13 79 1014.0
20260507100012 60 105 4.0 10.0 0.01 0.38 0.13 81 1014.0
20260507095828 60 113 4.0 9.0 0.01 0.39 0.13 80 1014.0
20260507095624 60 63 5.0 10.0 0.01 0.39 0.13 81 1014.0
20260507095442 59 74 4.0 10.0 0.01 0.39 0.13 82 1014.0
20260507095305 59 101 6.0 10.0 0.01 0.39 0.13 81 1014.0
20260507094823 59 61 6.0 10.0 0.01 0.39 0.13 83 1014.0
20260507094626 59 121 5.0 10.0 0.01 0.39 0.13 84 1014.0
20260507094444 59 124 6.0 10.0 0.01 0.39 0.13 83 1013.9
20260507094039 58 113 6.0 10.0 0.01 0.39 0.13 83 1014.0
20260507093945 58 57 7.0 10.0 0.01 0.39 0.13 83 1013.9
20260507093759 58 80 7.0 11.0 0.01 0.39 0.13 83 1013.9
20260507093610 58 103 4.0 11.0 0.01 0.39 0.13 85 1013.9
20260507093429 58 88 5.0 11.0 0.01 0.39 0.13 85 1014.0
20260507093246 58 68 5.0 11.0 0.01 0.39 0.13 84 1014.0
20260507092505 58 126 5.0 11.0 0.02 0.39 0.13 86 1014.0